TimeMDT,TemperatureF,Dew PointF,Humidity,Sea Level PressureIn,VisibilityMPH,Wind Direction,Wind SpeedMPH,Gust SpeedMPH,PrecipitationIn,Events,Conditions,WindDirDegrees,DateUTC
12:53 AM,30.0,19.0,64,30.46,10.0,North,3.5,-,N/A,,Clear,350,2012-10-06 06:53:00
1:53 AM,25.0,19.0,78,30.47,10.0,WNW,4.6,-,N/A,,Clear,300,2012-10-06 07:53:00
2:53 AM,27.0,18.0,69,30.47,10.0,WNW,4.6,-,N/A,,Clear,290,2012-10-06 08:53:00
4:53 AM,25.0,17.1,72,30.46,10.0,Calm,Calm,-,N/A,,Clear,0,2012-10-06 10:53:00
5:53 AM,25.0,17.1,72,30.48,10.0,North,4.6,-,N/A,,Clear,350,2012-10-06 11:53:00
6:53 AM,26.1,19.0,75,30.47,10.0,Calm,Calm,-,N/A,,Clear,0,2012-10-06 12:53:00
7:53 AM,21.2,17.6,86,30.41,10.0,Calm,Calm,-,N/A,,Clear,0,2012-10-06 13:53:00
8:53 AM,25.0,19.9,81,30.51,10.0,Calm,Calm,-,N/A,,Clear,0,2012-10-06 14:53:00
9:53 AM,30.0,21.9,72,30.51,10.0,Calm,Calm,-,N/A,,Partly Cloudy,0,2012-10-06 15:53:00
10:53 AM,34.0,19.9,56,30.50,10.0,Calm,Calm,-,N/A,,Clear,0,2012-10-06 16:53:00
11:53 AM,39.9,18.0,41,30.48,10.0,Calm,Calm,-,N/A,,Clear,0,2012-10-06 17:53:00
12:53 PM,43.0,19.0,38,30.44,10.0,Calm,Calm,-,N/A,,Clear,0,2012-10-06 18:53:00
1:53 PM,48.0,17.1,29,30.41,10.0,Calm,Calm,-,N/A,,Clear,0,2012-10-06 19:53:00
2:53 PM,51.1,15.1,24,30.37,10.0,WNW,6.9,-,N/A,,Clear,290,2012-10-06 20:53:00
3:53 PM,52.0,16.0,24,30.35,10.0,Variable,3.5,-,N/A,,Clear,0,2012-10-06 21:53:00
5:53 PM,53.1,19.0,26,30.32,10.0,North,13.8,-,N/A,,Clear,10,2012-10-06 23:53:00
6:53 PM,50.0,19.9,31,30.32,10.0,North,10.4,-,N/A,,Clear,360,2012-10-07 00:53:00
7:53 PM,50.0,23.0,35,30.32,10.0,North,5.8,-,N/A,,Clear,10,2012-10-07 01:53:00
8:53 PM,42.8,21.2,42,30.26,10.0,NW,5.8,-,N/A,,Clear,310,2012-10-07 02:53:00
9:53 PM,43.0,23.0,45,30.33,10.0,Calm,Calm,-,N/A,,Clear,0,2012-10-07 03:53:00
10:53 PM,39.0,23.0,53,30.33,10.0,Calm,Calm,-,N/A,,Clear,0,2012-10-07 04:53:00
11:53 PM,34.0,24.1,67,30.34,10.0,North,3.5,-,N/A,,Clear,350,2012-10-07 05:53:00